ORBCOMM FM32 [+]

Last updated on July 6, 2021, 3:36 p.m. UTC

1 25982U 99065C   21186.90252745 -.00000062  00000-0  28767-4 0  9990
2 25982  45.0191  46.5437 0006802  45.4514 314.6887 14.32197309127787
UTC
Height (km)
Latitude
Longitude
Inclination
Orbital Period
UTC large
Height (km)
Speed (km/s)
/
Latitude / Longitude
Inclination (degrees)
Orbital Period (minutes)
Azimuth
Elevation
Range (km)
Doppler Factor
iOS Compass Heading
iOS Angle